Starlink 32959

operational
NORAD ID: 63569 Int'l Des: 2025-076 Owner: SPXS Country: US Constellation: starlink
LEOCIRCULAR

关于 Starlink 32959

正在加载描述...

实时位置

正在加载3D地球...

即将过境

高度历史

Altitude vs Time

uPlot chart will show altitude changes over time

两行轨道根数

1 63569U 25076A 25304.47576752 .00046739 00000-0 16935-2 0 9991
2 63569 43.0029 335.4051 0002220 263.9356 96.1243 15.27652056 32021
Epoch: Oct 31, 2025 • Age: 50 hours

当前状态

高度 493.4 km
速度 7.62 km/s
星下点 -41.12°S, 27.33°W
发射日期 Apr 14, 2025
运行时间 0.5 years
类型 internet

技术详情

分类 Payload
质量 730.00 kg
干质量 700.00 kg
总质量 730.00 kg
长度 0.30 m
直径 4.10 m
跨度 29.00 m
形状 Box + pan
制造商 SPXS
平台类型 Starlink V2M
阶段状态 In Orbit
所有者/国家 SPXS/US

大型星座

Loading constellations...